Main page
METAR-TAF:

METAR-TAF

Airports :

Denison Municipal Airport

Denison, Iowa, United States

latitude: 41-59N, longitude: 095-23W, elevation: 1273 ft

Current weather observation

The report was made 34 minutes ago, at 03:35 UTC
Wind 5 mph from the Northwest
Temperature 66°F
Humidity 100%
Pressure 29.96 in. Hg
Visibility: 10 miles
Few clouds at a height of 900 ft
Few clouds at a height of 1300 ft
Overcast at a height of 3700 ft

METAR: KDNS 190335Z AUTO 31004KT 10SM FEW009 FEW013 OVC037 19/19 A2996 RMK AO2

Time: 23:09 (04:09 UTC)


TAF: missing

Weather observations and forecasts of more than 4000 airports (METAR and TAF reports).

The available stations are represented by yellow and red dots on the map.

Hover mouse over dot to see the name of the station.

Then click to see weather observations and forecasts.

To change the map : click on the green buttons with a black cross to zoom in, on the green button with a dash to zoom out, or on the green arrows for adjacent maps.


METAR-TAF: